Wind_Speed
9 9 9 9 9 9 9 8 8 8 8 8 8 8 8 9 9 8 9 9 7 7 7 7 8 8 8 7 6 6 5 5 4 5 5 5 5 5 5 5 5 6 7
9 9 9 8 9 9 9 9 9 9 9 9 9 9 9 9 9 9 9 9 8 7 7 8 9 8 8 7 7 7 6 6 6 7 6 5 5 5 5 5 6 7 7
8 9 9 8 8 9 9 9 9 9 9 9 9 10 10 10 9 9 10 9 8 8 8 9 9 9 8 8 7 7 7 7 7 7 7 6 6 6 6 6 7 7 8
10 9 9 9 8 8 9 9 10 10 10 10 10 10 10 10 10 10 10 9 8 9 10 10 10 10 9 9 9 9 9 9 8 8 7 7 7 7 7 7 7 8 8
11 10 10 10 10 10 10 10 10 11 11 11 11 11 11 11 11 11 11 11 10 10 10 11 11 11 11 11 11 10 10 10 10 9 9 8 8 8 8 9 8 8 9
11 11 10 11 11 10 11 11 11 12 12 12 12 12 12 12 12 13 13 13 12 12 12 12 12 12 13 12 12 12 12 12 12 11 11 10 10 9 10 11 11 10 11
12 11 11 11 11 11 12 12 12 13 13 13 13 13 14 14 14 14 14 14 14 14 14 14 14 14 14 14 14 14 13 13 13 13 12 12 11 12 12 12 13 13 13
13 13 12 12 11 12 13 13 13 14 14 14 14 14 15 15 15 15 15 15 15 15 15 15 15 15 15 15 15 15 14 14 14 14 14 14 14 14 14 14 14 15 15
14 13 13 12 12 13 14 14 14 15 15 16 15 15 15 16 16 16 16 15 15 16 16 16 16 16 16 15 15 15 15 15 15 15 15 15 15 15 16 16 16 16 16
13 13 13 14 13 13 14 14 14 15 15 16 16 17 16 17 16 16 15 16 16 17 17 17 17 17 16 16 17 17 17 17 17 17 17 17 17 17 17 17 17 17 18
14 13 14 14 14 14 14 15 15 15 16 16 17 18 18 17 17 17 17 17 18 17 17 17 18 18 18 18 18 18 18 19 19 19 19 19 19 19 19 19 19 19 19
14 14 15 14 14 16 16 16 16 16 17 17 18 18 18 18 18 18 18 18 18 18 19 19 19 20 20 20 19 19 20 20 20 20 21 21 20 20 20 21 21 21 21
15 15 16 16 16 16 17 17 17 18 18 18 19 19 19 19 20 19 20 20 20 20 21 21 21 22 22 22 21 21 22 22 21 21 22 21 21 22 22 23 23 23 23
17 17 17 17 17 17 18 18 19 19 20 20 20 20 21 21 21 21 22 22 22 22 23 23 23 23 23 23 23 23 23 22 22 22 22 22 22 22 23 23 24 24 24
18 18 19 19 18 18 19 20 20 21 21 22 22 22 22 22 23 23 23 24 24 24 24 24 24 25 25 25 25 24 24 24 23 23 24 24 24 25 25 25 25 25 25
19 20 20 21 21 20 21 22 22 22 22 23 23 23 23 24 24 24 24 25 25 25 26 25 25 25 26 25 25 25 25 25 25 25 25 26 26 26 25 26 26 26 27
20 21 22 22 22 22 22 23 23 23 24 24 25 25 25 25 25 25 26 26 26 26 26 26 26 26 26 26 26 26 26 26 27 27 27 27 27 26 27 27 27 27 27
22 22 22 23 23 23 24 24 24 25 25 26 26 27 27 27 27 27 27 27 28 27 26 26 26 27 27 27 28 28 28 28 28 27 27 28 27 27 27 27 27 27 27
25 23 24 24 24 25 26 26 26 26 26 27 27 28 28 28 27 27 27 27 27 27 26 27 27 28 28 28 29 29 29 28 28 28 28 28 27 27 27 28 28 27 27
25 24 25 26 26 26 27 27 27 27 27 28 28 29 28 28 28 27 27 27 27 28 28 29 29 29 29 29 29 30 30 29 29 29 29 28 28 28 29 29 28 28 27
29 28 27 27 28 29 29 29 29 29 29 29 30 29 28 28 28 28 28 28 29 29 29 29 29 30 30 30 30 30 31 30 30 29 29 29 29 29 30 30 29 28 28
31 30 29 29 29 30 30 30 30 30 30 31 31 30 29 29 28 28 29 30 30 29 29 30 30 30 31 31 31 31 31 31 31 30 30 29 30 30 31 31 29 28 28
31 30 29 30 30 31 32 31 31 31 31 32 31 31 30 30 30 30 30 30 30 30 30 31 31 31 31 31 32 32 32 32 32 31 31 30 31 31 31 30 29 28 28
32 32 30 31 31 32 32 32 32 32 32 32 32 32 32 31 31 31 31 31 31 31 31 31 31 31 31 31 32 31 32 32 32 31 30 30 30 30 29 28 28 28 30
32 31 31 32 32 32 33 33 33 33 33 33 32 32 32 32 32 32 32 32 32 32 32 32 32 31 32 32 32 32 31 30 29 28 29 29 29 29 29 28 28 29 29
32 32 32 32 32 32 32 33 33 33 33 33 33 33 33 33 33 33 33 32 31 31 31 31 31 31 31 31 30 31 31 30 30 30 29 29 29 29 29 29 29 29 29
Wind_Direction
347 346 345 346 348 348 349 350 349 350 350 351 352 353 353 353 352 352 351 347 342 344 347 350 349 349 350 355 358 351 335 329 325 320 314 309 296 276 266 266 265 264 267
342 339 343 342 343 342 343 344 344 343 342 345 347 346 346 347 350 351 349 349 347 342 340 341 340 338 340 341 344 342 339 334 329 327 325 315 300 285 281 274 269 272 278
339 333 336 334 337 339 338 335 337 337 336 338 341 340 341 341 340 339 341 342 340 338 330 332 334 336 338 340 336 331 330 325 323 322 318 311 310 300 293 294 284 281 282
335 332 332 331 330 331 331 332 330 330 332 333 332 331 332 333 332 329 330 333 334 335 331 331 330 327 325 325 320 319 320 322 321 318 309 305 306 302 296 293 293 288 286
329 324 327 331 333 332 329 329 328 327 327 327 327 327 326 325 326 325 323 323 321 323 324 326 327 324 320 318 315 311 311 313 314 315 311 307 301 296 295 295 295 292 289
324 322 320 323 328 329 324 327 327 328 325 323 323 323 322 320 318 318 318 317 316 315 317 318 318 317 316 313 312 308 305 304 305 306 304 300 296 291 290 290 290 289 287
313 314 311 311 317 319 319 320 321 323 322 322 320 319 319 317 315 314 313 313 312 312 312 311 310 310 309 306 306 304 301 301 301 300 299 299 298 295 290 289 289 288 287
308 310 307 310 313 313 315 318 319 319 317 317 317 315 314 314 315 313 311 311 310 311 311 310 308 307 306 304 302 301 297 295 294 294 293 293 295 294 291 290 290 288 287
304 309 309 309 308 308 311 314 315 317 318 317 316 314 313 313 313 313 311 310 310 311 311 311 309 308 306 304 303 302 298 295 293 290 288 287 288 288 287 287 287 286 287
299 304 306 306 306 307 309 311 312 315 317 318 318 315 311 312 313 312 310 308 307 309 309 309 308 307 306 304 302 301 298 295 293 290 288 286 284 283 283 284 284 284 285
295 302 306 304 305 306 310 311 311 314 316 316 315 314 312 312 311 308 307 305 304 305 306 307 306 305 304 304 303 301 300 296 293 290 288 286 283 282 282 283 285 285 284
291 298 303 304 307 307 309 310 311 312 314 314 313 314 313 313 311 307 305 304 303 303 303 303 303 303 302 301 300 300 299 297 296 292 288 285 283 282 282 283 285 286 285
287 294 299 301 305 303 306 309 309 310 312 312 312 312 311 311 309 306 304 303 302 301 301 301 301 301 300 299 298 298 299 297 296 293 289 286 284 283 282 283 284 284 283
286 290 292 294 296 296 300 305 307 307 309 309 309 308 307 307 305 303 302 301 301 300 299 299 299 300 299 298 297 297 297 297 295 293 291 288 286 284 283 284 285 283 282
284 287 290 292 295 297 297 300 303 304 304 306 306 305 304 303 303 302 301 301 300 299 298 298 298 298 298 298 296 295 295 295 294 293 292 291 288 285 283 283 283 282 281
283 285 288 291 292 294 295 296 298 300 302 303 304 303 302 302 301 300 300 300 300 300 298 298 298 298 299 298 296 295 294 293 292 292 292 291 290 287 284 283 282 281 280
282 283 285 288 293 294 295 296 297 298 301 302 302 302 301 300 300 299 298 299 299 300 299 299 298 297 296 296 294 294 293 292 292 292 292 292 292 288 285 284 283 282 280
281 282 283 285 289 291 292 293 295 297 299 300 301 302 302 302 300 299 300 300 299 299 299 299 298 298 298 297 296 295 293 292 292 294 295 294 292 290 289 288 286 283 281
279 278 280 283 285 288 290 291 293 295 297 298 298 299 300 301 300 300 300 300 299 298 298 298 299 298 298 298 297 297 295 294 294 295 295 293 292 291 290 289 287 284 283
276 279 283 284 285 286 288 290 291 293 294 296 297 298 298 299 299 298 298 298 298 298 297 298 299 299 298 297 297 296 295 294 294 294 293 292 291 290 290 288 286 283 282
276 281 282 283 284 285 286 288 289 291 293 295 295 295 296 296 296 297 297 297 298 298 298 299 300 300 301 300 298 296 295 294 293 293 293 291 290 290 289 288 285 282 281
278 278 279 282 283 284 286 288 288 289 291 293 294 293 293 294 294 294 295 296 297 297 299 300 299 298 299 299 298 296 295 293 292 292 292 289 289 289 288 287 284 283 283
278 278 279 280 283 283 285 287 288 290 291 292 292 291 291 291 291 292 293 294 294 296 298 298 298 297 297 297 296 295 294 293 291 292 291 289 287 287 287 287 285 284 283
279 279 279 282 283 283 284 284 286 289 290 290 290 290 289 290 291 290 290 293 294 296 298 298 297 297 296 296 296 295 294 292 292 291 290 289 288 289 288 286 285 284 283
279 279 282 283 283 284 284 284 286 287 288 289 288 288 289 290 291 290 290 292 294 296 297 297 297 296 295 296 296 296 295 293 293 292 290 290 290 290 290 288 287 286 285
278 280 282 283 284 285 285 284 286 287 287 287 288 287 287 287 289 289 289 291 293 295 297 298 298 297 296 296 297 298 296 295 294 293 293 292 292 291 290 288 287 287 286
Height
5894 5894 5893 5892 5891 5890 5889 5888 5887 5886 5885 5884 5882 5881 5880 5879 5877 5876 5875 5874 5873 5872 5870 5869 5869 5868 5866 5865 5864 5863 5862 5861 5861 5861 5860 5860 5860 5861 5861 5862 5862 5862 5863
5895 5894 5893 5892 5891 5890 5889 5888 5887 5886 5885 5884 5883 5882 5880 5879 5878 5876 5875 5874 5873 5872 5870 5869 5869 5867 5866 5865 5864 5863 5863 5862 5861 5861 5860 5860 5860 5860 5860 5860 5861 5861 5861
5895 5894 5893 5892 5891 5890 5889 5888 5887 5886 5885 5884 5883 5882 5880 5879 5878 5876 5875 5874 5873 5871 5870 5869 5868 5867 5866 5865 5864 5863 5862 5862 5861 5861 5860 5860 5859 5859 5859 5859 5859 5859 5859
5895 5893 5892 5891 5890 5889 5888 5888 5887 5885 5884 5883 5882 5881 5880 5879 5877 5876 5874 5873 5872 5871 5870 5869 5867 5867 5865 5864 5863 5862 5862 5861 5860 5859 5859 5859 5858 5858 5858 5858 5858 5857 5858
5894 5892 5891 5890 5889 5888 5888 5887 5886 5885 5883 5882 5881 5880 5879 5878 5876 5875 5874 5872 5871 5870 5869 5868 5866 5865 5864 5863 5862 5861 5860 5859 5859 5858 5857 5857 5857 5856 5857 5856 5856 5856 5855
5894 5892 5891 5889 5889 5888 5887 5886 5885 5884 5883 5881 5880 5879 5878 5876 5875 5873 5872 5871 5869 5868 5867 5866 5865 5863 5862 5861 5860 5859 5858 5857 5856 5856 5855 5855 5855 5854 5854 5854 5854 5853 5853
5893 5891 5890 5888 5888 5887 5885 5884 5883 5882 5881 5880 5878 5877 5876 5874 5873 5872 5870 5869 5867 5866 5865 5864 5863 5861 5860 5859 5858 5856 5855 5854 5854 5853 5853 5853 5852 5852 5852 5851 5851 5851 5850
5891 5890 5888 5887 5886 5885 5884 5883 5881 5880 5879 5878 5877 5875 5874 5872 5871 5869 5868 5866 5865 5864 5862 5861 5860 5858 5857 5856 5855 5854 5852 5852 5851 5850 5850 5849 5849 5849 5848 5848 5848 5847 5847
5889 5887 5886 5885 5885 5883 5882 5881 5879 5878 5877 5876 5874 5873 5871 5870 5868 5866 5865 5863 5862 5861 5859 5858 5856 5855 5854 5852 5851 5850 5849 5848 5847 5847 5846 5846 5845 5845 5844 5844 5844 5844 5843
5886 5885 5884 5883 5882 5881 5880 5879 5878 5876 5875 5873 5871 5869 5868 5866 5865 5863 5862 5860 5859 5858 5856 5855 5853 5851 5850 5849 5847 5846 5845 5844 5843 5842 5842 5841 5841 5840 5840 5840 5839 5839 5839
5884 5882 5882 5881 5880 5879 5878 5876 5875 5874 5872 5870 5869 5867 5865 5863 5862 5860 5859 5857 5856 5854 5853 5851 5850 5848 5846 5845 5844 5842 5841 5840 5839 5838 5837 5836 5836 5836 5835 5835 5834 5834 5833
5881 5880 5879 5878 5877 5876 5875 5874 5872 5871 5869 5867 5865 5864 5862 5860 5858 5857 5855 5853 5852 5851 5849 5847 5846 5844 5842 5841 5839 5838 5837 5835 5834 5833 5832 5831 5830 5829 5829 5829 5828 5828 5828
5878 5878 5876 5875 5874 5872 5871 5870 5869 5867 5866 5864 5862 5860 5858 5857 5855 5853 5851 5849 5848 5846 5844 5843 5841 5839 5838 5836 5834 5833 5832 5830 5829 5827 5826 5825 5824 5824 5823 5823 5822 5821 5821
5875 5874 5873 5871 5870 5869 5868 5867 5866 5864 5862 5860 5858 5856 5854 5852 5851 5849 5847 5845 5843 5841 5840 5838 5836 5834 5832 5831 5829 5827 5826 5824 5823 5821 5820 5819 5818 5817 5817 5816 5815 5814 5814
5871 5870 5869 5867 5865 5865 5865 5863 5862 5860 5858 5856 5854 5852 5850 5848 5846 5844 5842 5840 5838 5836 5834 5832 5830 5828 5826 5825 5823 5821 5819 5818 5816 5815 5814 5813 5811 5811 5810 5809 5808 5807 5807
5867 5866 5865 5864 5862 5862 5860 5859 5857 5855 5853 5851 5849 5847 5845 5843 5841 5839 5836 5834 5832 5830 5828 5826 5824 5822 5820 5818 5816 5814 5813 5811 5810 5808 5807 5805 5804 5803 5802 5801 5801 5800 5800
5862 5861 5860 5859 5858 5857 5856 5854 5852 5850 5848 5846 5844 5842 5839 5837 5835 5833 5831 5829 5826 5824 5822 5820 5818 5816 5814 5812 5810 5808 5806 5804 5802 5801 5799 5798 5797 5795 5794 5793 5793 5792 5791
5856 5856 5855 5854 5853 5852 5851 5849 5847 5845 5843 5840 5838 5836 5833 5831 5829 5826 5824 5822 5820 5817 5815 5813 5811 5809 5807 5805 5803 5801 5799 5797 5795 5793 5792 5790 5788 5787 5786 5785 5785 5784 5783
5849 5849 5848 5847 5847 5846 5845 5843 5841 5839 5837 5834 5832 5830 5827 5825 5822 5820 5818 5815 5813 5810 5808 5806 5804 5802 5800 5798 5796 5794 5792 5790 5788 5786 5784 5782 5781 5780 5778 5777 5776 5776 5775
5841 5841 5841 5840 5840 5839 5838 5836 5834 5832 5830 5828 5825 5823 5820 5818 5815 5813 5811 5808 5806 5804 5802 5799 5797 5795 5793 5790 5788 5786 5784 5782 5780 5778 5776 5774 5773 5772 5770 5769 5768 5767 5766
5834 5834 5834 5832 5833 5832 5831 5829 5827 5825 5823 5821 5818 5816 5813 5811 5808 5806 5804 5801 5799 5797 5794 5792 5790 5788 5785 5783 5780 5778 5776 5774 5772 5770 5768 5767 5765 5763 5762 5760 5759 5758 5757
5827 5827 5826 5825 5825 5824 5823 5822 5820 5818 5815 5813 5810 5808 5806 5804 5801 5799 5796 5794 5791 5789 5787 5785 5783 5780 5778 5775 5773 5770 5768 5766 5764 5762 5760 5758 5756 5755 5753 5751 5750 5749 5748
5819 5818 5818 5818 5817 5816 5815 5813 5811 5809 5807 5805 5802 5800 5798 5796 5794 5791 5789 5786 5783 5781 5779 5777 5775 5772 5770 5768 5765 5762 5759 5757 5755 5753 5751 5749 5748 5746 5744 5743 5741 5740 5739
5812 5810 5809 5809 5809 5808 5806 5805 5803 5801 5798 5796 5794 5792 5790 5788 5785 5783 5781 5778 5776 5774 5771 5769 5766 5763 5761 5759 5756 5754 5751 5748 5746 5744 5742 5741 5739 5737 5735 5734 5733 5732 5730
5804 5802 5802 5801 5800 5799 5797 5796 5794 5792 5790 5788 5786 5783 5781 5779 5777 5775 5772 5770 5768 5766 5763 5760 5758 5755 5753 5750 5748 5745 5742 5740 5738 5736 5734 5732 5731 5729 5727 5725 5724 5723 5721
5795 5794 5793 5792 5791 5790 5788 5787 5785 5783 5781 5779 5777 5775 5773 5770 5768 5766 5764 5761 5760 5757 5755 5752 5750 5747 5745 5742 5739 5736 5734 5731 5729 5727 5726 5724 5722 5720 5718 5717 5715 5714 5712